Location: Bethel Church
(38.0159°N, 88.7292°W)
Time: 03:36:00
(UTC+00:00)

SL-24 R/B - RUBIN 2 - Pass Details

Date: 08 December 2021
Orbit: 599 x 996 km, 64.6° (Epoch: 21 January)

Event Time Altitude Azimuth Distance (km) Brightness Sun altitude
Rises 23:10:55 0° 328° (NNW) 2,930 7.1 -7.2°
Reaches altitude 10° 23:13:14 10° 328° (NNW) 1,986 6.3 -7.6°
Maximum altitude 23:17:40 87° 240° (WSW) 607 3.6 -8.4°
Drops below altitude 10° 23:21:59 10° 152° (SSE) 1,933 6.0 -9.2°
Sets 23:24:13 0° 151° (SSE) 2,845 6.9 -9.6°
